METEOR 2-11 DEB, 42457

Orbit data source: Space-Track

METEOR 2-11 DEB, 42457 is space debris in LEO originally from a launch on Thu, 05 Jul 1984 UTC launched from the Plesetsk Missile And Space Complex (PKMTR). Debris objects in space refer to the collection of defunct objects orbiting the Earth. Examples of debris include non-operational satellites, rocket bodies, and fragments generated from explosions, collisions, or faulty payload assembly.

Loading next visibility...
Identifier
42457, 1984-072T
Orbit
LEO
Country
Flag of CISCIS
Related business
Manufacturer
Unknown
Mission
Spacecraft
Bus & Motor
Unknown
Mass
Unknown
Launch date (UTC)
1984-07-05 (42 years ago)
Launch vehicle
Unknown
Launch site
Plesetsk Missile And Space Complex (PKMTR)
Object type
Payload
Rocket body
Debris
Shape & HBR
Unknown shape, 0.1 m
Radar Cross Section
Small (<0.1 m²)

Expand to show TLE details & history
Last TLE update: 1 week ago

TLE from 1 week ago
0 METEOR 2-11 DEB
1 42457U 84072T   26202.69491139  .00001675  00000-0  12411-2 0  9997
2 42457  82.5307 357.5418 0018186 327.6809  32.3241 13.94598712485473
Epoch: 2026-07-21T16:40Z
TLE epoch observation values (Epoch: 2026-07-21T16:40:40.344Z)
Latitude
-0.00003°
Longitude
167.91278°
Altitude
904.276 km
Speed
7.406 km/s
True Right ascension
23h 50m 10s
True Declination
0° 00' 00"
Sunlit
Object was in full shadow at epoch
Visualization orbit readout
Latitude
Unknown
Longitude
Unknown
Altitude
Unknown
Speed
Unknown
Apparent Right ascension
Unknown
Apparent Declination
Unknown
Sunlit
N/A
Visualization observer readout
Local Sidereal Time
05:28:40
Azimuth
Unknown
Elevation
Unknown
Doppler factor
Unknown
Orbital elements
Apogee altitude
922.951 km
Perigee altitude
896.444 km
Semi-major axis
7,287.834 km
Eccentricity
0.00182
Inclination
82.5307°
RAAN
357.5418°
Arg. of periapsis
327.6809°
True anomaly
32.43575°
Mean anomaly
32.3241°
Eccentric anomaly
32.3799°
Mean motion
3.48855 °/min
Orbital period
103.19 mins
BSTAR
0.0012411
Loading maneuver chart data...
Computing Atmospheric mass density...
Loading historical data...
Loading historical data...
Loading historical data...
Loading historical data...
Loading historical data...
Loading historical data...
Loading historical data...

Documentation

Showing up to 5 results
|